Tracking 25723 objects as of 26-Jun-2022
HD Live streaming from Space Station
objects crossing your sky now

AMC-7 (GE-7)

Track AMC-7 (GE-7) now!
AMC-7 (GE-7) is classified as:


NORAD ID: 26495
Int'l Code: 2000-054B
Perigee: 36,087.1 km
Apogee: 36,144.3 km
Inclination: 3.2 °
Period: 1,452.6 minutes
Semi major axis: 42486 km
RCS: 22.9975 m2 (large)
Launch date: September 14, 2000
Source: SOCIETE EUROPEENNE DES SATELLITES (SES)
Launch site: FRENCH GUIANA (FRGUI)

Cable programming; 24 C-band; CONUS, Alaska, Hawaii, Caribbean
aabbcc
Your satellite tracking list
Your tracking list is empty




NASA's NSSDC Master Catalog

Two Line Element Set (TLE):
1 26495U 00054B   22177.54550112  .00000033  00000-0  00000-0 0  9993
2 26495   3.1957  87.1841 0006731  30.6915 202.2190  0.99134087 79578
Source of the keplerian elements: AFSPC